When you browse on this site, cookies collect data to enhance your experience and personalize the content and advertising you see.
Visit our Privacy Policy to learn more. By continuing to use the site, you agree to this use of cookies and data.

Previsão horária em Soelden

Hoje, 18 Setembro, Sexta-feira

Tempo Temperatura Precipitação Vento Pressão Humidade
00:00 +6°C° 0 mm 1 m/s 586 mmHg 89%
01:00 +6°C° 0 mm 1 m/s 586 mmHg 88%
02:00 +6°C° 0 mm 1 m/s 586 mmHg 88%
03:00 +5°C° 0 mm 1 m/s 586 mmHg 88%
04:00 +5°C° 0 mm 1 m/s 586 mmHg 89%
05:00 +6°C° 0 mm 1 m/s 586 mmHg 88%
06:00 +5°C° 0 mm 0 m/s 587 mmHg 88%
07:00 +6°C° 0 mm 0 m/s 587 mmHg 87%
08:00 +8°C° 0 mm 0 m/s 588 mmHg 79%
09:00 +11°C° 0 mm 1 m/s 589 mmHg 71%
10:00 +13°C° 0 mm 1 m/s 590 mmHg 63%
11:00 +14°C° 0 mm 1 m/s 591 mmHg 60%
12:00 +15°C° 0 mm 1 m/s 591 mmHg 56%
13:00 +16°C° 0 mm 1 m/s 591 mmHg 53%
14:00 +16°C° 0.1 mm 1 m/s 591 mmHg 56%
15:00 +15°C° 0.1 mm 1 m/s 590 mmHg 59%
16:00 +15°C° 0.1 mm 1 m/s 590 mmHg 62%
17:00 +13°C° 0.1 mm 1 m/s 589 mmHg 72%
18:00 +11°C° 0.1 mm 1 m/s 588 mmHg 82%
19:00 +7°C° 0.1 mm 0 m/s 587 mmHg 92%
20:00 +7°C° 0 mm 0 m/s 587 mmHg 93%
21:00 +6°C° 0 mm 0 m/s 587 mmHg 93%
22:00 +6°C° 0 mm 0 m/s 587 mmHg 94%
23:00 +6°C° 0 mm 0 m/s 587 mmHg 94%

Amanhã, 19 Setembro, Sábado

Tempo Temperatura Precipitação Vento Pressão Humidade
00:00 +6°C° 0 mm 0 m/s 587 mmHg 94%
01:00 +6°C° 0 mm 0 m/s 587 mmHg 94%
02:00 +5°C° 0 mm 0 m/s 586 mmHg 94%
03:00 +5°C° 0 mm 0 m/s 586 mmHg 94%
04:00 +5°C° 0 mm 0 m/s 586 mmHg 93%
05:00 +6°C° 0 mm 0 m/s 586 mmHg 92%
06:00 +6°C° 0 mm 0 m/s 586 mmHg 92%
07:00 +7°C° 0 mm 0 m/s 587 mmHg 91%
08:00 +9°C° 0 mm 0 m/s 587 mmHg 84%
09:00 +11°C° 0 mm 1 m/s 588 mmHg 76%
10:00 +13°C° 0 mm 1 m/s 589 mmHg 69%
11:00 +14°C° 0 mm 1 m/s 589 mmHg 66%
12:00 +15°C° 0 mm 1 m/s 589 mmHg 63%
13:00 +15°C° 0 mm 2 m/s 589 mmHg 60%
14:00 +15°C° 0.2 mm 2 m/s 589 mmHg 64%
15:00 +14°C° 0.2 mm 2 m/s 588 mmHg 67%
16:00 +14°C° 0.2 mm 2 m/s 588 mmHg 71%
17:00 +12°C° 0.2 mm 1 m/s 587 mmHg 79%
18:00 +10°C° 0.2 mm 1 m/s 586 mmHg 87%
19:00 +9°C° 0.2 mm 1 m/s 585 mmHg 95%
20:00 +8°C° 0.1 mm 1 m/s 585 mmHg 96%
21:00 +7°C° 0.1 mm 0 m/s 585 mmHg 96%
22:00 +7°C° 0.1 mm 0 m/s 585 mmHg 97%
23:00 +6°C° 0 mm 0 m/s 585 mmHg 97%

Depois de amanhã, 20 Setembro, Domingo

Tempo Temperatura Precipitação Vento Pressão Humidade
00:00 +6°C° 0 mm 0 m/s 585 mmHg 97%
01:00 +6°C° 0 mm 0 m/s 584 mmHg 96%
02:00 +6°C° 0 mm 0 m/s 584 mmHg 95%
03:00 +5°C° 0 mm 0 m/s 584 mmHg 95%
04:00 +5°C° 0 mm 0 m/s 584 mmHg 94%
05:00 +5°C° 0 mm 0 m/s 584 mmHg 93%
06:00 +6°C° 0 mm 0 m/s 584 mmHg 92%
07:00 +6°C° 0 mm 0 m/s 584 mmHg 91%
08:00 +8°C° 0.1 mm 0 m/s 585 mmHg 84%
09:00 +11°C° 0.1 mm 1 m/s 586 mmHg 77%
10:00 +12°C° 0.1 mm 1 m/s 586 mmHg 70%
11:00 +13°C° 0.4 mm 1 m/s 586 mmHg 68%
12:00 +14°C° 0.4 mm 1 m/s 587 mmHg 66%
13:00 +14°C° 0.4 mm 1 m/s 587 mmHg 63%
14:00 +14°C° 1.1 mm 1 m/s 586 mmHg 68%
15:00 +13°C° 1.1 mm 2 m/s 586 mmHg 73%
16:00 +12°C° 1.1 mm 2 m/s 585 mmHg 77%
17:00 +11°C° 0.8 mm 1 m/s 585 mmHg 82%
18:00 +10°C° 0.8 mm 1 m/s 584 mmHg 87%
19:00 +7°C° 0.8 mm 0 m/s 584 mmHg 92%
20:00 +7°C° 0.1 mm 0 m/s 584 mmHg 92%
21:00 +6°C° 0.1 mm 0 m/s 584 mmHg 93%
22:00 +6°C° 0.1 mm 0 m/s 584 mmHg 94%
23:00 +5°C° 0 mm 0 m/s 583 mmHg 94%

21 Setembro, Segunda-feira

Tempo Temperatura Precipitação Vento Pressão Humidade
00:00 +5°C° 0 mm 0 m/s 583 mmHg 94%
01:00 +5°C° 0 mm 0 m/s 583 mmHg 94%
02:00 +5°C° 0 mm 0 m/s 583 mmHg 94%
03:00 +4°C° 0 mm 0 m/s 583 mmHg 94%
04:00 +4°C° 0 mm 0 m/s 582 mmHg 94%
05:00 +5°C° 0 mm 0 m/s 583 mmHg 93%
06:00 +5°C° 0 mm 0 m/s 583 mmHg 92%
07:00 +5°C° 0 mm 0 m/s 583 mmHg 92%
08:00 +7°C° 0.1 mm 0 m/s 584 mmHg 87%
09:00 +10°C° 0.1 mm 1 m/s 585 mmHg 82%
10:00 +11°C° 0.1 mm 1 m/s 586 mmHg 78%
11:00 +12°C° 0.7 mm 1 m/s 586 mmHg 76%
12:00 +12°C° 0.7 mm 1 m/s 586 mmHg 73%
13:00 +13°C° 0.7 mm 1 m/s 586 mmHg 71%
14:00 +12°C° 1 mm 1 m/s 586 mmHg 74%
15:00 +12°C° 1 mm 1 m/s 586 mmHg 76%
16:00 +12°C° 1 mm 1 m/s 585 mmHg 79%
17:00 +10°C° 0.8 mm 1 m/s 585 mmHg 83%
18:00 +9°C° 0.8 mm 1 m/s 584 mmHg 88%
19:00 +7°C° 0.8 mm 0 m/s 584 mmHg 92%
20:00 +6°C° 0.1 mm 0 m/s 584 mmHg 93%
21:00 +5°C° 0.1 mm 0 m/s 583 mmHg 93%
22:00 +5°C° 0.1 mm 0 m/s 583 mmHg 94%
23:00 +4°C° 0 mm 0 m/s 583 mmHg 94%

22 Setembro, Terça-feira

Tempo Temperatura Precipitação Vento Pressão Humidade
00:00 +4°C° 0 mm 0 m/s 583 mmHg 94%
01:00 +4°C° 0 mm 0 m/s 582 mmHg 94%
02:00 +4°C° 0 mm 0 m/s 582 mmHg 94%
03:00 +3°C° 0 mm 0 m/s 582 mmHg 94%
04:00 +3°C° 0 mm 0 m/s 582 mmHg 94%
05:00 +4°C° 0 mm 0 m/s 582 mmHg 94%
06:00 +4°C° 0 mm 0 m/s 582 mmHg 93%
07:00 +5°C° 0 mm 0 m/s 583 mmHg 93%
08:00 +7°C° 0 mm 1 m/s 583 mmHg 89%
09:00 +9°C° 0 mm 1 m/s 584 mmHg 84%
10:00 +10°C° 0 mm 1 m/s 585 mmHg 80%
11:00 +11°C° 0.4 mm 1 m/s 585 mmHg 77%
12:00 +11°C° 0.4 mm 1 m/s 585 mmHg 75%
13:00 +12°C° 0.4 mm 1 m/s 585 mmHg 72%
14:00 +11°C° 0.8 mm 1 m/s 584 mmHg 76%
15:00 +11°C° 0.8 mm 1 m/s 584 mmHg 81%
16:00 +10°C° 0.8 mm 1 m/s 584 mmHg 85%
17:00 +9°C° 0.6 mm 1 m/s 583 mmHg 88%
18:00 +8°C° 0.6 mm 1 m/s 583 mmHg 92%
19:00 +6°C° 0.6 mm 0 m/s 582 mmHg 95%
20:00 +6°C° 0.2 mm 0 m/s 582 mmHg 95%
21:00 +5°C° 0.2 mm 0 m/s 582 mmHg 95%
22:00 +5°C° 0.2 mm 0 m/s 582 mmHg 95%
23:00 +5°C° 0.1 mm 0 m/s 582 mmHg 95%

23 Setembro, Quarta-feira

Tempo Temperatura Precipitação Vento Pressão Humidade
00:00 +4°C° 0.1 mm 0 m/s 582 mmHg 95%
01:00 +4°C° 0.1 mm 0 m/s 582 mmHg 95%
02:00 +4°C° 0.1 mm 0 m/s 581 mmHg 95%
03:00 +4°C° 0.1 mm 0 m/s 581 mmHg 95%
04:00 +4°C° 0.1 mm 0 m/s 581 mmHg 95%
05:00 +4°C° 0.2 mm 0 m/s 581 mmHg 94%
06:00 +5°C° 0.2 mm 0 m/s 582 mmHg 94%
07:00 +5°C° 0.2 mm 0 m/s 582 mmHg 94%
08:00 +5°C° 0.6 mm 0 m/s 582 mmHg 93%
09:00 +6°C° 0.6 mm 0 m/s 582 mmHg 92%
10:00 +7°C° 0.6 mm 1 m/s 582 mmHg 91%
11:00 +8°C° 0.2 mm 1 m/s 582 mmHg 90%
12:00 +8°C° 0.2 mm 1 m/s 582 mmHg 89%
13:00 +9°C° 0.2 mm 1 m/s 582 mmHg 88%
14:00 +9°C° 0.3 mm 1 m/s 582 mmHg 88%
15:00 +9°C° 0.3 mm 1 m/s 582 mmHg 88%
16:00 +9°C° 0.3 mm 1 m/s 582 mmHg 87%
17:00 +8°C° 0.2 mm 1 m/s 582 mmHg 90%
18:00 +7°C° 0.2 mm 1 m/s 581 mmHg 93%
19:00 +5°C° 0.2 mm 0 m/s 581 mmHg 96%
20:00 +5°C° 0.1 mm 0 m/s 581 mmHg 96%
21:00 +6°C° 0.1 mm 1 m/s 581 mmHg 96%
22:00 +6°C° 0.1 mm 1 m/s 581 mmHg 96%
23:00 +6°C° 0.1 mm 1 m/s 580 mmHg 96%
Mostrar mais